COSMOS 2556 (52713 NORAD) Tracking and Keplerian Element Data

This shows tracking and keplerian element data for the satellite.

Feedback or suggestion? Click here.




ElementValue
Catalog52713
NameCOSMOS 2556
Epoch Orbit9173
Epoch Day13.17762555
Epoch Year2024
RAAN300.612
Inclination97.5608
Eccentricity0.000818
Argument of Perigee113.3042
Mean Anonmoly246.9057
Mean Motion15.25069384
Decay Rate7.538E-05
L11 52713U 22054A 24013.17762555 .00007538 00000+0 30412-3 0 9994
L22 52713 97.5608 300.6120 0008180 113.3042 246.9057 15.25069384 91734



Live tracking and technical data element details for COSMOS 2556 (NORAD 52713). COSMOS 2556 can be tracked NOW for your location showing map with azimuth and elevation plus other details from your city location.







IsCatalogInMostPopularTable: catalog: 52713, numindb: 944
Update: records affected: 1



GetName: 52713 COSMOS 2556

Hit Count: updated at: Fri, 19 Apr 2024 11:50:38 GMT